Regional Weather Roundup
Issued by NWS

Home | Current Version | Previous Version | Text Only | Print | Product List | Glossary Off
Versions: 1 2 3 4 5 6 7 8 9 10 11 12 13 14 15 16 17 18 19 20 21 22 23 24 25 26 27 28 29 30 31 32 33 34 35 36 37 38 39 40 41 42 43 44 45 46 47 48 49 50

000
ASUS43 KFSD 291210
RWRSD

WEATHER ROUNDUP FOR SOUTH DAKOTA
NATIONAL WEATHER SERVICE SIOUX FALLS SD
700 AM CDT TUE JUL 29 2014

NOTE: "FAIR" INDICATES FEW OR NO CLOUDS BELOW 12,000 FEET WITH NO
SIGNIFICANT WEATHER AND/OR OBSTRUCTIONS TO VISIBILITY.


SDZ001>005-009-010-012>017-291300-
NORTHWEST AND NORTH CENTRAL SOUTH DAKOTA

CITY           SKY/WX    TMP DP  RH WIND       PRES   REMARKS
BUFFALO          N/A     56  51  84 CALM      30.19S
FAITH            N/A     55  51  86 S9        30.25R
MOBRIDGE       CLEAR     51  50  96 E3        30.20F
$$

SDZ012>016-024>037-041>051-057-063-072>074-291300-
SOUTHWEST AND SOUTH CENTRAL SOUTH DAKOTA

CITY           SKY/WX    TMP DP  RH WIND       PRES   REMARKS
RAPID CTY ARPT MOCLDY    55  50  83 W3        30.27R
PIERRE         CLEAR     52  50  93 CALM      30.22R
CUSTER         CLOUDY    56  48  74 CALM      30.36F
ELLSWORTH AFB  PTCLDY    57  51  81 SW6       30.27R
PHILIP         CLEAR     50  47  89 W5        30.24R
PINE RIDGE     MOCLDY    61  55  81 E6        30.25R
WINNER         FAIR      56  50  80 SE3       30.24R
$$

SDZ004>011-016>023-039-040-291300-
NORTHEAST SOUTH DAKOTA

CITY           SKY/WX    TMP DP  RH WIND       PRES   REMARKS
ABERDEEN       CLEAR     46  45  96 CALM      30.23R
WATERTOWN      MOCLDY    50  49  96 CALM      30.21S
SISSETON         N/A     54  52  93 NW6       30.19R
$$

SDZ017-020-022-023-036>040-048>070-291300-
SOUTHEAST SOUTH DAKOTA

CITY           SKY/WX    TMP DP  RH WIND       PRES   REMARKS
SIOUX FALLS    PTCLDY    51  50  96 CALM      30.22R
HURON          PTCLDY    48  47  96 CALM      30.22S
CHAMBERLAIN    CLEAR     50  47  91 CALM      30.24R
MITCHELL       CLEAR     51  49  92 CALM      30.23S
YANKTON        PTCLDY    54  52  94 NW3       30.22S
$$

ABBREVIATIONS USED IN REMARKS
   TC - TEMPERATURE IN CELSIUS
  WCI - WIND CHILL INDEX
   HX - HEAT INDEX
  VSB - VISIBILITY



USA.gov is the U.S. government's official web portal to all federal, state and local government web resources and services.